www.pogodaiklimat.ru

Погода и климат >> Архив погоды >> Индонезия >> Алор


ПОГОДА на Алоре

  • Прогноз погоды на Алоре
  • Монитор погоды на Алоре

АРХИВ ПОГОДЫ на Алоре

Время (UTC), дата Ветер
(напр.,м/с)
 
Видим.   Явления Облачность Т
(С)
Тd
(С)
f
(%)
Тe
(С)
Тes
(С)
Комфортность P
(гПа)
Po
(гПа)
Тmin
(С)
Tmax
(С)
R
(мм)
R24
(мм)
S
(см)
09 15.08 В 2 12 км 3/1 600 м
[Cu hum Ci fib]
+27.7 +19.9 63 +34 +34 очень
душно
1013.5 1012.2
12 15.08 штиль 0 8000 м ясно +23.9 +19.6 77 +29 +29 душно 1015.0 1013.7 +30.0
15 15.08 ЮЗ 1 8000 м ясно +22.0 +19.4 85 +27 +27 душно 1015.6 1014.3
18 15.08 ЮЗ 1 8000 м 4/0
[Ac trans]
+20.6 +18.8 89 +26 +26 душно 1014.6 1013.3
00 16.08 В 3 14 км 1/0
[Ac trans]
+25.9 +21.1 75 +33 +38 очень
душно
1016.4 1015.1 +19.8
03 16.08 В 4 14 км 3/3 570 м
[Cu med, cong]
+29.2 +20.9 61 +36 +45 очень
душно
1015.7 1014.4
06 16.08 В 4 14 км 3/3 570 м
[Cu med, cong]
+29.8 +21.6 61 +38 +44 очень
душно
1013.5 1012.2
09 16.08 В 2 12 км 3/1 570 м
[Cu med, cong Ci fib]
+27.9 +21.7 69 +36 +36 очень
душно
1012.9 1011.6
12 16.08 штиль 0 8000 м 1/1 600 м
[Cu hum Ci fib]
+25.1 +21.3 79 +32 +32 очень
душно
1014.4 1013.1 +30.3
15 16.08 ЮЗ 2 8000 м 3/0
[Ci fib]
+22.8 +20.0 84 +29 +29 очень
душно
1015.1 1013.8
18 16.08 штиль 0 8000 м 9/8 600 м
[Cu med, cong Ac trans Ci fib]
+22.6 +20.1 86 +29 +29 очень
душно
1014.5 1013.2
00 17.08 ЮВ 3 14 км {дождь} 1/1 570 м
[Cu hum Ci fib]
+26.4 +21.3 74 +34 +38 очень
душно
1015.9 1014.6 +20.9 0.0
03 17.08 С 5 14 км 1/1 570 м
[Cu med, cong]
+29.2 +21.5 63 +37 +47 очень
душно
1015.3 1014.0
06 17.08 СЗ 5 14 км 5/4 540 м
[Cu med, cong Ci fib]
+29.2 +22.8 68 +39 +43 очень
душно
1013.5 1012.2
09 17.08 Ю 1 14 км 3/1 600 м
[Cu hum Ac trans Ci fib]
+28.3 +21.7 67 +36 +37 очень
душно
1013.4 1012.1
12 17.08 Ю 2 8000 м 1/1 600 м
[Cu hum]
+26.2 +20.8 72 +33 +33 очень
душно
1015.1 1013.8 +29.5
15 17.08 ЮЗ 4 8000 м 6/1 570 м
[Cu hum Ac lent]
+26.1 +19.1 65 +31 +31 очень
душно
1015.2 1014.0
18 17.08 СВ 1 8000 м 8/1 570 м
[Cu hum Ac lent Ci fib]
+25.0 +20.6 77 +31 +31 очень
душно
1014.0 1012.7
00 18.08 Ю 3 14 км 3/1 600 м
[Cu hum Ac trans]
+27.1 +21.7 72 +35 +38 очень
душно
1014.9 1013.6 +22.5
03 18.08 СВ 3 14 км 1/1 600 м
[Cu hum Ac trans]
+30.2 +22.2 62 +39 +53 опасность
солнечного
удара
1014.5 1013.2
06 18.08 СЗ 4 14 км 4/4 540 м
[Cu med, cong Ac trans]
+30.4 +21.9 60 +39 +45 очень
душно
1012.1 1010.8
09 18.08 З 2 14 км 6/3 570 м
[Cu med, cong Ac trans]
+28.4 +22.6 71 +38 +38 очень
душно
1011.7 1010.4
12 18.08 штиль 0 8000 м 6/5 570 м
[Cu med, cong Ac trans]
+27.0 +22.5 76 +35 +35 очень
душно
1014.1 1012.8 +30.9
15 18.08 штиль 0 8000 м 6/4 540 м
[Cu med, cong Ac trans Ci fib]
+26.2 +20.9 73 +33 +33 очень
душно
1014.9 1013.6
18 18.08 штиль 0 8000 м 1/1 570 м
[Cu med, cong Ci fib]
+25.6 +20.7 74 +32 +32 очень
душно
1013.4 1012.1
00 19.08 Ю 4 14 км 3/3 570 м
[Cu med, cong]
+27.5 +22.9 76 +37 +40 очень
душно
1014.8 1013.6 +23.7
03 19.08 СВ 2 14 км 3/3 570 м
[Cu med, cong]
+30.1 +21.8 61 +38 +53 опасность
солнечного
удара
1014.2 1013.0
06 19.08 СВ 2 14 км 3/3 570 м
[Cu med, cong]
+30.2 +22.3 63 +39 +49 очень
душно
1011.2 1010.0
09 19.08 З 2 12 км 3/3 570 м
[Cu med, cong Ci fib]
+28.8 +21.9 66 +37 +37 очень
душно
1011.3 1010.0
12 19.08 штиль 0 8000 м ясно +26.2 +22.0 78 +34 +34 очень
душно
1014.0 1012.7 +30.9
15 19.08 штиль 0 8000 м ясно +25.4 +21.4 79 +32 +32 очень
душно
1014.5 1013.2
18 19.08 штиль 0 8000 м ясно +23.6 +21.0 85 +30 +30 очень
душно
1014.2 1013.0
00 20.08 В 2 14 км 1/1 600 м
[Cu hum]
+26.6 +25.2 92 +38 +44 очень
душно
1015.6 1014.4 +21.6
03 20.08 СВ 4 14 км 4/4 570 м
[Cu med, cong]
+29.8 +22.2 64 +39 +46 очень
душно
1014.6 1013.3
06 20.08 В 10 14 км осадки на расстоянии 10/9 540 м
[Cu med, cong As op Cs]
+28.6 +23.5 74 +39 +39 очень
душно
1012.6 1011.3
09 20.08 В 8 5000 м осадки на расстоянии 10/9 500 м
[Cu med, cong As op Ci fib]
+26.2 +23.2 84 +35 +35 очень
душно
1012.6 1011.3 1
12 20.08 З 2 8000 м {дождь} 5/1 570 м
[Cu hum Ac trans Ci fib]
+24.8 +23.0 90 +33 +33 очень
душно
1014.2 1013.0 +31.1 1
15 20.08 З 1 8000 м 1/1 540 м
[Cu hum Ci fib]
+23.0 +21.6 92 +31 +31 очень
душно
1014.7 1013.4
18 20.08 штиль 0 8000 м 1/1 570 м
[Cu hum]
+21.7 +20.3 92 +27 +27 душно 1013.5 1012.2
00 21.08 В 3 14 км 3/1 570 м
[Cu hum Ac trans Ci fib]
+25.2 +19.0 69 +30 +35 душно 1015.3 1014.0 +20.0 1
03 21.08 СВ 9 12 км 5/4 540 м
[Cu med, cong Ci fib]
+29.0 +21.8 65 +37 +38 очень
душно
1013.0 1011.7
06 21.08 СВ 6 12 км 4/4 570 м
[Cu med, cong Ci fib]
+30.0 +21.2 59 +38 +41 очень
душно
1010.1 1008.9
09 21.08 В 5 10 км 6/5 570 м
[Cu med, cong Ac trans Ci fib]
+27.8 +22.2 72 +36 +36 очень
душно
1010.3 1009.1
12 21.08 В 6 8000 м 4/4 570 м
[Cu med, cong Ci fib]
+26.6 +22.3 77 +35 +35 очень
душно
1013.2 1012.0 +30.1
15 21.08 штиль 0 8000 м 1/0
[Ci fib]
+24.1 +20.9 82 +30 +30 очень
душно
1014.5 1013.3
18 21.08 В 2 8000 м 1/1 570 м
[Cu hum Ci fib]
+23.9 +18.9 74 +29 +29 душно 1014.2 1012.9
00 22.08 ЮВ 2 14 км 1/1 600 м
[Cu hum]
+25.4 +18.6 66 +30 +36 душно 1016.1 1014.8 +19.9
03 22.08 В 7 14 км 3/3 570 м
[Cu med, cong]
+30.3 +20.5 56 +37 +41 очень
душно
1013.9 1012.7
06 22.08 СВ 6 14 км 3/3 570 м
[Cu med, cong]
+29.6 +20.8 59 +37 +41 очень
душно
1011.8 1010.6

 

Местоположение метеостанции Алор (Индонезия): широта -8.22 долгота 124.56 высота над уровнем моря 12 м.

В архиве по умолчанию представлена погода на Алоре за последнюю неделю. Архивные данные за месяц целиком и за предыдущие месяцы, начиная с января 2011 года, Вы можете получить, выбрав интересующий диапазон дат из раскрывающегося списка и нажав кнопку "Ввод!".


*Определитесь, кто Вы:
робот инопланетянин человек

Внимание! Время в таблицах - всемирное. Для получения местного времени необходимо прибавить поправку, которая равна 7 ч.

Смотрите также архив погоды в соседних городах и на ближайших метеорологических станциях:

Погода в Ларантуке (Индонезия) (175 км)
Погода в Купанге (Индонезия) (237 км)
Погода в Маумере (Индонезия) (258 км)
Погода на Роти (Индонезия) (324 км)
Погода в Бау-Бау (Индонезия) (374 км)
Погода в Сабу (Индонезия) (393 км)
Погода в Рутенге (Индонезия) (454 км)
Погода в Аэропорту Умбу Механг Кунда (Индонезия) (492 км)
Погода в Кендари (Индонезия) (515 км)
Погода в Тауне (Индонезия) (526 км)

Пояснения к столбцам:

Ветер - указаны скорость ветра в м/с - средняя за 10 мин, порывы в срок и между сроками (в фигурных скобках) и направление, откуда дует ветер: С - северный, СВ - северо-восточный, В - восточный, ЮВ - юго-восточный, Ю - южный, ЮЗ - юго-западный, З - западный, СЗ - северо-западный.
Видимость - горизонтальная дальность видимости в метрах или километрах. При видимости от 1 до 10 км при отсутствии осадков обычно наблюдается дымка, при ухудшении видимости до 1 км и менее - туман. В сухую погоду видимость может ухудшаться дымом, пылью или мглою.
Явления - указаны атмосферные явления, наблюдавшиеся в срок или в последний час перед сроком; фигурными скобками обозначены явления, наблюдавшиеся между сроками (за 1-3 часа до срока); квадратными скобками обозначены град или гололедные отложения с указанием их диаметра в мм.
Облачность - указаны через наклонную черту общая и нижняя облачность в баллах и высота нижней границы облаков в метрах; квадратными скобками обозначены формы облаков: Ci - перистые, Cs - перисто-слоистые, Cc - перисто-кучевые, Ac - высококучевые, As - высокослоистые, Sc - слоисто-кучевые, Ns - слоисто-дождевые, Cu - кучевые, Cb - кучево-дождевые. Подробнее классификацию облаков см. в Атласе облаков (PDF).
T - Температура воздуха - температура, измеренная на высоте 2 м над землей.
Td - Температура точки росы - температура, при понижении до которой содержащийся в воздухе водяной пар достигнет насыщения.
f - Относительная влажность воздуха - влажноcть воздуха, измеренная на высоте 2 м над землей.
Te - Эффективная температура - температура, которую ощущает одетый по сезону человек в тени. Характеристика душности погоды. При расчете учитывается влияние влажности воздуха и скорости ветра на теплоощущения человека.
Tes - Эффективная температура на солнце - температура, которую ощущает человек, с поправкой на солнечный нагрев. Характеристика знойности погоды. Зависит от высоты солнца над горизонтом, облачности и скорости ветра. Ночью, в пасмурную погоду, а также при ветре 12 м/с и более поправка равна нулю.
P - Атмосферное давление - приведенное к уровню моря атмосферное давление.
Po - Атмосферное давление - измеренное на уровне метеостанции атмосферное давление.
Tmin - Минимальная температура - минимум температуры воздуха на высоте 2 м над землей.
Tmax - Максимальная температура - максимум температуры воздуха на высоте 2 м над землей.
R - Количество осадков - Количество выпавших осадков за период времени, мм. При наведении курсора мыши на число - период времени, за который выпало указанное количество осадков.
R24 - Количество осадков - Количество выпавших осадков за 24 часа, мм.
S - Снежный покров - Высота снежного покрова, см. При наведении курсора мыши на число - состояние снежного покрова и степень покрытия местности в баллах.